TimeCET,TemperatureF,Dew PointF,Humidity,Sea Level PressureIn,VisibilityMPH,Wind Direction,Wind SpeedMPH,Gust SpeedMPH,PrecipitationIn,Events,Conditions,WindDirDegrees,DateUTC
12:15 AM,50.0,42.8,76,29.53,6.2,West,5.8,-,N/A,,Partly Cloudy,260,2012-11-29 23:15:00
12:45 AM,50.0,42.8,76,29.53,6.2,West,6.9,-,N/A,,Scattered Clouds,260,2012-11-29 23:45:00
12:55 AM,50.0,42.8,76,29.53,6.2,West,6.9,-,N/A,,Scattered Clouds,260,2012-11-29 23:55:00
1:00 AM,51,43,65,29.54,6,West,6.9,,,,Scattered Clouds,260,2012-11-30 00:00:00
1:15 AM,50.0,42.8,76,29.53,6.2,West,5.8,-,N/A,,Scattered Clouds,270,2012-11-30 00:15:00
1:45 AM,50.0,42.8,76,29.53,6.2,WNW,4.6,-,N/A,Rain,Light Rain,300,2012-11-30 00:45:00
1:55 AM,50.0,42.8,76,29.53,6.2,WNW,4.6,-,N/A,Rain,Light Rain,300,2012-11-30 00:55:00
2:15 AM,50.0,42.8,76,29.53,6.2,NW,4.6,-,N/A,Rain,Light Rain,310,2012-11-30 01:15:00
2:55 AM,50.0,42.8,76,29.53,6.2,NW,5.8,-,N/A,,Scattered Clouds,310,2012-11-30 01:55:00
3:15 AM,50.0,42.8,76,29.53,6.2,West,5.8,-,N/A,,Mostly Cloudy,270,2012-11-30 02:15:00
3:45 AM,50.0,41.0,71,29.53,6.2,West,5.8,-,N/A,,Scattered Clouds,270,2012-11-30 02:45:00
3:55 AM,50.0,41.0,71,29.53,6.2,West,5.8,-,N/A,,Scattered Clouds,270,2012-11-30 02:55:00
4:00 AM,51,42,61,29.54,6,West,5.8,,,,Partly Cloudy,270,2012-11-30 03:00:00
4:15 AM,50.0,41.0,71,29.53,6.2,WNW,5.8,-,N/A,,Scattered Clouds,300,2012-11-30 03:15:00
4:45 AM,50.0,41.0,71,29.53,6.2,West,5.8,-,N/A,,Mostly Cloudy,270,2012-11-30 03:45:00
4:55 AM,50.0,41.0,71,29.53,6.2,West,5.8,-,N/A,,Mostly Cloudy,270,2012-11-30 03:55:00
5:15 AM,50.0,41.0,71,29.53,6.2,West,5.8,-,N/A,,Mostly Cloudy,270,2012-11-30 04:15:00
5:45 AM,50.0,41.0,71,29.53,6.2,West,8.1,-,N/A,,Scattered Clouds,270,2012-11-30 04:45:00
5:55 AM,50.0,41.0,71,29.53,6.2,West,8.1,-,N/A,,Scattered Clouds,270,2012-11-30 04:55:00
6:15 AM,50.0,41.0,71,29.53,6.2,West,8.1,-,N/A,,Scattered Clouds,270,2012-11-30 05:15:00
6:45 AM,50.0,42.8,76,29.53,6.2,WSW,5.8,-,N/A,,Mostly Cloudy,250,2012-11-30 05:45:00
6:55 AM,50.0,42.8,76,29.53,6.2,WSW,5.8,-,N/A,,Mostly Cloudy,250,2012-11-30 05:55:00
7:00 AM,50,42,66,29.54,6,WSW,5.8,,,,Partly Cloudy,250,2012-11-30 06:00:00
7:15 AM,50.0,42.8,76,29.53,6.2,WSW,5.8,-,N/A,,Mostly Cloudy,250,2012-11-30 06:15:00
7:45 AM,50.0,41.0,71,29.53,6.2,West,5.8,-,N/A,,Mostly Cloudy,280,2012-11-30 06:45:00
7:55 AM,50.0,41.0,71,29.53,6.2,West,5.8,-,N/A,,Mostly Cloudy,280,2012-11-30 06:55:00
8:15 AM,50.0,41.0,71,29.53,6.2,West,6.9,-,N/A,,Mostly Cloudy,270,2012-11-30 07:15:00
8:45 AM,50.0,41.0,71,29.56,6.2,West,6.9,-,N/A,,Mostly Cloudy,270,2012-11-30 07:45:00
8:55 AM,50.0,41.0,71,29.56,6.2,West,6.9,-,N/A,,Mostly Cloudy,270,2012-11-30 07:55:00
9:15 AM,51.8,41.0,67,29.56,6.2,West,8.1,-,N/A,,Mostly Cloudy,270,2012-11-30 08:15:00
9:45 AM,51.8,41.0,67,29.56,6.2,WNW,2.3,-,N/A,,Scattered Clouds,290,2012-11-30 08:45:00
9:55 AM,51.8,41.0,67,29.56,6.2,WNW,2.3,-,N/A,,Scattered Clouds,290,2012-11-30 08:55:00
10:00 AM,52,41,55,29.58,12,WNW,2.3,,,,Scattered Clouds,290,2012-11-30 09:00:00
10:15 AM,51.8,42.8,71,29.56,6.2,WNW,2.3,-,N/A,,Scattered Clouds,290,2012-11-30 09:15:00
10:45 AM,53.6,42.8,67,29.59,6.2,WNW,2.3,-,N/A,,Partly Cloudy,290,2012-11-30 09:45:00
10:55 AM,53.6,42.8,67,29.59,6.2,WNW,2.3,-,N/A,,Partly Cloudy,290,2012-11-30 09:55:00
11:15 AM,55.4,42.8,63,29.56,6.2,South,1.2,-,N/A,,Partly Cloudy,170,2012-11-30 10:15:00
11:45 AM,57.2,39.2,51,29.56,6.2,WSW,4.6,-,N/A,,Partly Cloudy,250,2012-11-30 10:45:00
11:55 AM,57.2,39.2,51,29.56,6.2,WSW,4.6,-,N/A,,Partly Cloudy,250,2012-11-30 10:55:00
12:15 PM,-9999,-9999,N/A,29.56,6.2,NW,1.2,-,N/A,,Scattered Clouds,310,2012-11-30 11:15:00
12:45 PM,57.2,37.4,48,29.56,6.2,WNW,5.8,-,N/A,,Scattered Clouds,300,2012-11-30 11:45:00
12:55 PM,57.2,37.4,48,29.56,6.2,WNW,5.8,-,N/A,,Scattered Clouds,300,2012-11-30 11:55:00
1:00 PM,56,38,39,29.58,12,WNW,5.8,,,,Mostly Cloudy,300,2012-11-30 12:00:00
1:15 PM,55.4,39.2,54,29.56,6.2,North,3.5,-,N/A,Rain,Light Rain,360,2012-11-30 12:15:00
1:45 PM,55.4,37.4,51,29.56,6.2,ESE,3.5,-,N/A,Rain,Light Rain,120,2012-11-30 12:45:00
1:55 PM,55.4,37.4,51,29.56,6.2,ESE,3.5,-,N/A,Rain,Light Rain,120,2012-11-30 12:55:00
2:15 PM,53.6,41.0,62,29.56,6.2,NNW,10.4,-,N/A,Rain,Light Rain,330,2012-11-30 13:15:00
2:45 PM,51.8,42.8,71,29.56,6.2,NNW,9.2,-,N/A,,Mostly Cloudy,330,2012-11-30 13:45:00
2:55 PM,51.8,42.8,71,29.56,6.2,NNW,9.2,-,N/A,,Mostly Cloudy,330,2012-11-30 13:55:00
3:15 PM,51.8,42.8,71,29.59,6.2,NNW,9.2,-,N/A,,Mostly Cloudy,340,2012-11-30 14:15:00
3:45 PM,51.8,41.0,67,29.59,6.2,North,6.9,-,N/A,,Scattered Clouds,350,2012-11-30 14:45:00
3:55 PM,51.8,41.0,67,29.59,6.2,North,6.9,-,N/A,,Scattered Clouds,350,2012-11-30 14:55:00
4:00 PM,52,41,57,29.60,12,North,6.9,,,,Partly Cloudy,350,2012-11-30 15:00:00
4:15 PM,51.8,42.8,71,29.59,6.2,NE,3.5,-,N/A,,Scattered Clouds,40,2012-11-30 15:15:00
4:45 PM,51.8,42.8,71,29.59,6.2,NE,1.2,-,N/A,,Mostly Cloudy,40,2012-11-30 15:45:00
4:55 PM,51.8,42.8,71,29.59,6.2,NE,1.2,-,N/A,,Mostly Cloudy,40,2012-11-30 15:55:00
5:15 PM,51.8,41.0,67,29.59,6.2,Calm,Calm,-,N/A,,Mostly Cloudy,0,2012-11-30 16:15:00
5:45 PM,51.8,42.8,71,29.59,6.2,Calm,Calm,-,N/A,Rain,Light Rain,0,2012-11-30 16:45:00
5:55 PM,51.8,42.8,71,29.59,6.2,Calm,Calm,-,N/A,Rain,Light Rain,0,2012-11-30 16:55:00
6:15 PM,51.8,42.8,71,29.62,6.2,NE,1.2,-,N/A,Rain,Light Rain,40,2012-11-30 17:15:00
6:45 PM,50.0,44.6,82,29.62,6.2,Calm,Calm,-,N/A,,Mostly Cloudy,0,2012-11-30 17:45:00
6:55 PM,50.0,44.6,82,29.62,6.2,Calm,Calm,-,N/A,,Mostly Cloudy,0,2012-11-30 17:55:00
7:00 PM,50,44,75,29.63,6,Calm,Calm,,,Rain,Light Rain,,2012-11-30 18:00:00
7:15 PM,50.0,42.8,76,29.62,6.2,Calm,Calm,-,N/A,,Mostly Cloudy,0,2012-11-30 18:15:00
7:45 PM,50.0,42.8,76,29.62,6.2,West,1.2,-,N/A,,Scattered Clouds,260,2012-11-30 18:45:00
7:55 PM,50.0,42.8,76,29.62,6.2,West,1.2,-,N/A,,Scattered Clouds,260,2012-11-30 18:55:00
8:15 PM,50.0,44.6,82,29.62,6.2,West,1.2,-,N/A,,Scattered Clouds,260,2012-11-30 19:15:00
8:45 PM,50.0,44.6,82,29.65,6.2,West,1.2,-,N/A,,Scattered Clouds,260,2012-11-30 19:45:00
8:55 PM,50.0,44.6,82,29.65,6.2,West,1.2,-,N/A,,Scattered Clouds,260,2012-11-30 19:55:00
9:15 PM,50.0,44.6,82,29.65,6.2,WNW,3.5,-,N/A,,Mostly Cloudy,290,2012-11-30 20:15:00
9:45 PM,48.2,44.6,87,29.65,6.2,WNW,4.6,-,N/A,,Mostly Cloudy,300,2012-11-30 20:45:00
9:55 PM,48.2,44.6,87,29.65,6.2,WNW,4.6,-,N/A,,Mostly Cloudy,300,2012-11-30 20:55:00
10:00 PM,49,45,79,29.67,6,WNW,4.6,,,,Mostly Cloudy,300,2012-11-30 21:00:00
10:15 PM,48.2,44.6,87,29.65,6.2,WNW,4.6,-,N/A,,Mostly Cloudy,300,2012-11-30 21:15:00
10:45 PM,48.2,44.6,87,29.68,6.2,NW,4.6,-,N/A,,Mostly Cloudy,310,2012-11-30 21:45:00
10:55 PM,48.2,44.6,87,29.68,6.2,NW,4.6,-,N/A,,Mostly Cloudy,310,2012-11-30 21:55:00
11:15 PM,48.2,44.6,87,29.68,6.2,NW,3.5,-,N/A,,Mostly Cloudy,310,2012-11-30 22:15:00
11:45 PM,46.4,44.6,93,29.68,6.2,NW,5.8,-,N/A,,Scattered Clouds,320,2012-11-30 22:45:00
11:55 PM,46.4,44.6,93,29.68,6.2,NW,5.8,-,N/A,,Scattered Clouds,320,2012-11-30 22:55:00